Tracking 19854 objects as of 22-Sep-2019
HD Live streaming from Space Station
objects crossing your sky now

COSMOS 1275 DEB


COSMOS 1275 DEB is no longer on orbit


NORAD ID: 13465
Int'l Code: 1981-053FM
Perigee: N/A
Apogee: N/A
Inclination: N/A
Period: N/A
Semi major axis: N/A
RCS: N/A
Launch date: June 4, 1981
Source: Commonwealth of Independent States (former USSR) (CIS)
Launch site: PLESETSK MISSILE AND SPACE COMPLEX (PKMTR)
Decay date: 2018-10-26

Note: This is SATELLITE DEBRIS
aabbcc
Your satellite tracking list
Your tracking list is empty




NASA's NSSDC Master Catalog

Two Line Element Set (TLE):
1 13465U 81053FM  18298.81407531  .13360546 -12267-5  39694-2 0  9998
2 13465  82.9389 181.5323 0010553 200.7334 159.3533 16.27026685593218
Source of the keplerian elements: AFSPC